CAPE
nan nan nan nan nan nan nan nan nan nan nan nan nan nan nan nan nan nan nan nan nan nan nan nan nan nan nan nan nan nan 7 34 61 61 64 64 72 72 77 84 84 96 100 111 111 116 119 125 125 135 143 167 194 194 215 214 214 221 228 237 237 242 241 263 263 311 312 307 309 309 311 323 338 338 353 398 408 408 380 363 363 368 362 351 351 355
nan nan nan nan nan nan nan nan nan nan nan nan nan nan nan nan nan nan nan nan nan nan nan nan nan nan nan nan nan nan 8 43 56 56 59 63 66 66 78 88 88 93 99 109 109 109 107 113 113 120 133 147 170 170 183 183 183 189 211 226 226 225 227 237 237 268 263 265 280 280 293 317 349 349 371 391 380 380 351 342 342 346 329 341 341 364
nan nan nan nan nan nan nan nan nan nan nan nan nan nan nan nan nan nan nan nan nan nan nan nan nan nan nan nan nan nan 9 45 56 56 59 58 65 65 77 89 89 96 101 100 100 99 93 91 91 98 111 130 147 147 148 149 149 162 185 203 203 210 203 207 207 205 207 216 228 228 263 300 362 362 351 348 336 336 304 322 322 341 327 340 340 373
nan nan nan nan nan nan nan nan nan nan nan nan nan nan nan nan nan nan nan nan nan nan nan nan nan nan nan nan nan nan 22 43 50 50 54 61 72 72 81 90 90 91 91 86 86 81 75 74 74 85 100 123 137 137 135 132 132 148 157 167 167 173 173 167 167 168 165 179 198 198 226 269 297 297 299 296 290 290 285 318 318 351 353 354 354 363
nan nan nan nan nan nan nan nan nan nan nan nan nan nan nan nan nan nan nan nan nan nan nan nan nan nan nan nan nan nan 22 43 45 45 57 70 85 85 92 90 90 83 77 70 70 66 65 68 68 82 112 131 135 135 133 136 136 135 129 126 126 130 136 137 137 141 144 154 177 177 215 239 261 261 278 285 277 277 273 316 316 356 345 357 357 352
nan nan nan nan nan nan nan nan nan nan nan nan nan nan nan nan nan nan nan nan nan nan nan nan nan nan nan nan nan nan 18 33 38 38 59 80 92 92 88 80 80 72 65 58 58 59 65 79 79 105 125 141 140 140 138 139 139 123 108 104 104 108 118 128 128 130 139 156 190 190 227 242 256 256 271 278 274 274 273 293 293 351 357 361 361 380
nan nan nan nan nan nan nan nan nan nan nan nan nan nan nan nan nan nan nan nan nan nan nan nan nan nan nan nan 3 3 14 18 35 35 54 70 79 79 71 62 62 60 55 54 54 62 77 100 100 121 142 147 135 135 127 118 118 104 94 93 93 96 107 119 119 133 144 170 205 205 235 240 237 237 244 244 256 256 248 262 262 306 326 340 340 350
nan nan nan nan nan nan nan nan nan nan nan nan nan nan nan nan nan nan nan nan nan nan nan nan nan nan nan nan nan nan nan nan nan nan nan nan 3 3 12 25 25 29 43 64 64 79 98 107 107 106 94 88 81 81 72 64 64 64 71 79 79 92 102 117 117 141 169 199 209 209 205 195 183 183 178 175 177 177 177 183 183 198 227 247 247 268
nan nan nan nan nan nan nan nan nan nan nan nan nan nan nan nan nan nan nan nan nan nan nan nan nan nan nan nan nan nan nan nan nan nan nan nan nan nan nan 4 4 20 50 65 65 83 83 82 82 72 67 61 51 51 45 47 47 50 60 75 75 93 104 124 124 148 170 187 190 190 188 179 176 176 169 163 158 158 151 150 150 155 174 202 202 229
nan nan nan nan nan nan nan nan nan nan nan nan nan nan nan nan nan nan nan nan nan nan nan nan nan nan nan nan nan nan nan nan nan nan 0 nan 0 0 nan nan nan 2 38 58 58 63 59 54 54 50 44 37 32 32 28 30 30 40 55 77 77 90 106 124 124 143 163 167 170 170 168 166 161 161 151 145 146 146 140 134 134 129 146 170 170 191
nan nan nan nan nan nan nan nan nan nan nan nan nan nan nan nan nan nan 4 1 1 nan 3 6 6 nan nan nan nan nan nan nan nan nan nan nan nan nan nan nan nan 6 23 30 30 33 35 36 36 33 27 20 19 19 21 26 26 40 60 78 78 88 103 115 115 133 137 146 144 144 147 149 145 145 140 135 130 130 125 122 122 122 128 140 140 171
nan nan nan nan nan nan nan nan nan nan nan nan nan nan 1 nan nan nan 18 16 16 12 13 6 6 nan nan nan nan nan nan nan nan nan nan nan nan nan nan nan nan nan 3 10 10 9 18 22 22 19 14 9 16 16 20 25 25 42 61 76 76 85 94 100 100 108 115 119 121 121 123 126 127 127 123 124 118 118 114 114 114 111 123 141 141 161
nan nan nan nan nan 0 nan nan 0 0 3 8 9 9 15 24 23 23 25 20 20 20 9 1 1 nan nan nan nan nan nan nan nan nan nan nan nan nan nan nan nan nan nan nan nan nan 1 12 12 11 13 10 16 16 26 32 32 48 62 73 73 78 83 84 84 90 92 94 100 100 102 108 109 109 109 109 104 104 105 106 106 113 120 147 147 163
nan nan nan nan nan 1 2 1 8 8 17 10 14 14 24 31 25 25 20 18 18 14 0 nan nan nan nan nan nan nan nan nan nan nan nan nan nan nan nan nan nan nan nan nan nan nan nan 0 0 nan 7 8 13 13 28 42 42 57 64 68 68 68 71 71 71 72 76 76 81 81 81 86 90 90 90 90 94 94 97 99 99 110 123 145 145 174
nan nan 1 3 3 2 2 4 9 9 17 14 12 12 29 28 26 26 18 15 15 9 nan nan nan nan nan nan nan nan nan nan nan nan nan nan nan nan nan nan nan nan nan nan nan nan nan nan nan nan nan nan 8 8 26 40 40 64 63 61 61 63 64 63 63 65 65 70 72 72 72 76 80 80 84 84 90 90 97 100 100 100 114 140 140 155
10 3 1 1 1 3 3 6 10 10 9 12 30 30 37 26 19 19 18 14 14 5 nan nan nan nan nan nan nan nan nan nan nan nan nan nan nan nan nan nan nan nan nan nan nan nan nan nan nan nan nan 4 34 34 42 47 47 58 56 54 54 56 58 57 57 59 60 61 63 63 66 69 73 73 77 85 91 91 94 99 99 103 117 128 128 153
2 1 1 0 0 3 4 9 13 13 6 10 44 44 36 14 8 8 14 9 9 2 0 0 0 nan nan nan nan nan nan nan nan nan nan nan nan nan nan nan nan nan nan nan nan nan nan nan nan nan nan 19 39 39 39 43 43 49 50 51 51 52 53 53 53 52 55 59 61 61 64 66 71 71 82 83 92 92 101 107 107 117 127 142 142 154
1 1 3 4 4 6 6 3 11 11 15 28 34 34 16 7 8 8 11 6 6 1 nan nan nan nan nan nan nan nan nan nan nan nan nan nan nan nan nan nan nan nan nan nan nan nan nan nan nan nan nan 31 38 38 37 39 39 43 45 47 47 49 49 51 51 52 54 55 59 59 61 67 74 74 82 89 93 93 106 110 110 127 133 149 149 164
1 1 1 5 5 8 7 nan 7 7 21 26 4 4 nan 1 2 2 6 2 2 nan nan nan nan nan nan nan nan nan nan nan nan nan 0 nan nan nan nan nan nan nan nan nan nan nan nan nan nan nan 14 26 33 33 34 35 35 37 39 45 45 44 48 48 48 51 55 55 57 57 63 69 79 79 86 93 97 97 103 113 113 125 133 146 146 157
nan nan nan 0 0 6 7 14 29 29 22 12 nan nan nan nan nan nan 0 nan nan nan nan nan nan nan nan nan nan nan nan nan nan nan 1 nan nan nan nan nan nan nan nan nan nan nan nan nan nan nan 2 16 29 29 32 31 31 34 38 42 42 43 46 47 47 50 51 53 58 58 64 70 76 76 82 89 97 97 97 110 110 119 131 147 147 166
nan nan nan nan nan nan 7 13 28 28 12 3 nan nan nan nan nan nan 2 nan nan nan nan nan nan nan nan nan nan nan nan nan 0 0 1 nan nan nan nan nan nan nan nan nan nan nan nan nan nan nan nan 14 25 25 27 30 30 33 38 39 39 40 42 44 44 46 48 54 57 57 63 70 75 75 79 85 91 91 97 105 105 120 127 146 146 166
nan nan nan nan nan nan 6 3 23 23 6 nan nan nan nan nan nan nan 1 nan nan nan nan nan nan nan nan nan nan nan nan nan 0 0 3 nan nan nan nan nan nan nan nan nan nan nan nan nan nan nan nan 17 19 19 20 24 24 30 34 38 38 39 38 37 37 41 43 50 57 57 64 68 73 73 76 83 89 89 100 110 110 117 131 138 138 158
nan nan nan nan nan 0 1 nan 2 2 2 nan nan nan nan nan nan nan nan nan nan nan nan nan nan nan nan nan nan nan nan nan nan nan 0 nan nan nan nan nan nan nan nan nan nan nan nan nan nan nan nan 11 9 9 12 15 15 22 29 32 32 32 34 34 34 35 39 47 53 53 59 66 71 71 74 83 91 91 98 108 108 119 128 135 135 146
nan nan nan nan nan 1 nan nan nan nan nan nan nan nan nan nan nan nan nan nan nan nan nan nan nan nan nan nan nan nan nan nan nan nan nan nan nan nan nan nan nan 0 nan nan nan nan nan nan nan nan nan nan 3 3 6 10 10 18 22 24 24 27 29 30 30 33 37 43 48 48 56 61 66 66 71 80 88 88 98 105 105 118 127 129 129 114
nan 0 5 9 9 14 4 nan nan nan nan nan nan nan nan nan nan nan nan nan nan nan nan nan nan nan nan nan nan nan nan nan nan nan nan nan nan nan nan nan nan 0 nan nan nan nan nan nan nan nan nan nan nan nan 2 6 6 12 16 19 19 20 23 26 26 28 34 41 45 45 49 56 61 61 66 73 79 79 84 97 97 108 117 111 111 88
3 8 13 21 21 30 32 32 40 40 22 9 nan nan nan nan nan nan nan nan nan nan nan nan nan nan nan nan nan nan nan nan nan nan nan 0 0 0 nan nan nan 0 nan nan nan nan nan nan nan nan nan nan nan nan 0 3 3 7 11 13 13 16 17 21 21 25 30 34 40 40 45 51 53 53 61 68 75 75 85 90 90 100 102 87 87 68
18 22 28 32 32 35 40 43 49 49 75 81 18 18 nan nan nan nan nan nan nan nan nan nan nan nan nan nan nan nan nan nan nan nan nan nan 1 1 nan nan nan nan nan nan nan nan nan nan nan nan nan nan nan nan nan 1 1 3 7 9 9 10 14 17 17 22 25 28 32 32 36 42 47 47 56 63 69 69 78 87 87 94 87 74 74 53
14 17 22 27 27 29 31 39 57 57 67 70 60 60 0 nan nan nan nan 0 0 0 0 nan nan nan nan nan nan nan nan nan nan nan nan 1 0 0 nan nan nan nan nan nan nan nan nan nan nan nan nan nan nan nan nan 0 0 1 3 4 4 6 10 13 13 18 20 23 26 26 32 38 43 43 48 57 61 61 73 83 83 89 81 46 46 6
0 2 6 14 14 14 13 10 51 51 62 52 57 57 3 nan 6 6 1 1 1 1 1 2 2 1 0 nan nan nan nan nan nan nan nan 1 0 0 nan nan nan nan nan nan nan nan nan nan nan nan nan nan nan nan nan nan nan nan 1 2 2 3 6 10 10 14 17 20 24 24 28 33 40 40 43 51 55 55 68 78 78 88 70 28 28 4
nan nan nan nan nan 0 nan nan 9 9 66 53 56 56 34 nan 11 11 4 2 2 3 2 3 3 2 1 nan nan nan nan nan nan nan 1 2 nan nan nan nan nan nan nan nan nan nan nan nan nan nan nan nan nan nan nan nan nan nan nan 0 0 0 4 8 8 12 14 17 20 20 25 30 34 34 38 45 51 51 62 74 74 68 34 7 7 4
nan nan nan nan nan nan nan nan nan nan 23 62 63 63 29 nan 3 3 5 2 2 3 4 3 3 3 2 0 nan nan nan nan nan nan 7 4 nan nan nan nan nan nan nan nan nan nan nan nan nan nan nan nan nan nan nan nan nan nan nan nan nan nan 2 7 7 8 11 14 17 17 22 26 29 29 34 39 44 44 56 69 69 62 19 4 4 2
nan nan nan nan nan nan nan nan nan nan nan nan nan nan 12 10 3 3 nan nan nan nan 0 0 0 nan nan nan nan nan nan nan 1 1 14 1 nan nan nan nan nan nan nan 0 0 0 nan nan nan nan nan nan nan nan nan nan nan nan nan nan nan nan nan 2 2 2 3 9 13 13 16 18 20 20 20 26 34 34 41 47 47 47 17 5 5 6
nan nan nan nan nan nan nan nan nan nan nan nan nan nan nan 0 2 2 nan nan nan nan nan nan nan 0 nan nan nan nan nan nan nan nan 14 nan nan nan nan nan nan nan nan nan nan nan nan nan nan nan nan nan nan nan nan nan nan nan nan nan nan nan nan nan nan nan 0 3 5 5 12 14 16 16 17 21 29 29 36 40 40 42 36 4 4 7
nan nan nan nan nan nan nan nan nan nan nan nan nan nan 1 nan nan nan nan nan nan nan nan nan nan 1 0 0 nan nan nan nan nan nan 4 nan nan nan nan nan nan nan 0 0 0 nan nan nan nan nan nan nan nan nan nan nan nan nan nan nan nan nan nan nan nan nan nan nan nan nan nan 1 10 10 10 17 24 24 31 35 35 36 35 20 20 8
nan nan nan nan nan nan nan nan nan nan nan nan nan nan nan nan nan nan nan nan nan nan nan nan nan nan nan 0 0 0 nan nan nan nan 0 nan nan nan nan nan nan nan nan nan nan nan nan nan nan 0 nan nan nan nan nan nan nan nan nan nan nan nan nan nan nan nan nan nan nan nan nan nan nan nan 2 11 18 18 24 24 24 27 29 36 36 22
nan nan nan nan nan nan nan nan nan nan nan nan nan nan nan nan nan nan nan nan nan nan nan nan nan nan nan nan nan nan nan nan nan nan nan nan nan nan nan nan nan nan nan 0 0 0 nan nan nan 0 0 nan nan nan nan nan nan nan nan nan nan nan nan nan nan nan nan nan nan nan nan nan nan nan 0 13 16 16 14 13 13 16 19 22 22 25
nan nan nan nan nan nan nan nan nan nan nan nan nan nan nan nan nan nan nan nan nan nan nan nan nan nan nan nan nan nan nan nan nan nan nan nan nan nan nan nan nan nan nan nan nan 0 0 nan nan nan nan nan nan nan nan nan nan nan nan nan nan nan nan nan nan nan nan nan nan nan nan nan 0 0 1 12 7 7 7 8 8 8 11 11 11 14
nan nan nan nan nan nan nan nan nan nan nan nan nan nan nan nan nan nan nan nan nan nan nan nan nan nan nan nan nan nan nan nan nan nan nan nan nan nan nan nan nan nan nan nan nan nan nan nan nan nan nan nan nan nan nan nan nan nan nan nan nan nan nan nan nan nan nan nan 0 0 1 0 nan nan nan 0 nan nan nan nan nan 1 4 4 4 8
nan nan nan nan nan nan nan nan nan nan nan nan nan nan nan nan nan nan nan nan nan nan nan nan nan nan nan nan nan nan nan nan nan nan nan nan nan nan nan nan nan nan nan nan nan nan nan nan nan nan nan nan nan nan nan nan nan nan nan nan nan nan nan nan nan nan nan nan 0 0 nan nan nan nan nan nan nan nan nan nan nan nan nan nan nan 0
nan nan nan nan nan nan nan nan nan nan nan 0 nan nan nan nan nan nan nan nan nan nan nan nan nan nan nan nan nan nan nan nan nan nan nan nan nan nan nan nan nan nan nan nan nan nan nan nan nan nan nan nan nan nan nan nan nan nan nan nan nan nan nan nan nan nan nan nan nan nan nan nan nan nan nan nan nan nan nan nan nan nan nan nan nan nan
nan nan nan nan nan nan nan nan nan nan nan nan nan nan nan nan nan nan nan nan nan nan nan nan nan nan nan nan nan nan nan nan nan nan nan nan nan nan nan nan nan nan nan nan nan nan nan nan nan nan nan nan nan nan nan nan nan nan 1 nan nan nan nan nan nan nan nan nan nan nan nan 0 0 0 nan nan nan nan nan nan nan nan nan nan nan nan
2 nan nan nan nan nan nan nan 0 0 0 nan nan nan nan nan nan nan nan nan nan nan nan nan nan nan nan nan nan nan nan nan nan nan nan nan nan nan nan nan nan nan nan nan nan nan nan nan nan nan nan nan nan nan nan nan nan nan nan nan nan nan nan nan nan nan nan nan nan nan 0 nan nan nan nan nan nan nan nan nan nan nan nan nan nan nan
nan nan nan nan nan nan nan nan 1 1 nan nan nan nan nan nan nan nan nan nan nan nan nan nan nan nan nan nan nan nan nan nan nan nan nan nan nan nan nan nan nan nan nan nan nan nan nan nan nan nan nan nan nan nan nan nan nan nan nan nan nan nan nan nan nan nan nan nan nan nan nan nan nan nan nan nan nan nan nan nan nan nan nan nan nan nan
nan nan nan nan nan nan nan nan nan nan 1 3 nan nan nan nan nan nan nan nan nan nan nan nan nan nan nan nan nan nan nan nan nan nan nan nan nan nan nan nan nan nan nan nan nan nan nan nan nan nan nan nan nan nan nan nan nan nan nan nan nan nan nan nan nan nan nan nan nan nan nan nan nan nan nan nan nan nan nan nan nan nan nan nan nan nan
nan nan nan nan nan nan nan nan nan nan 1 4 nan nan nan nan nan nan nan nan nan nan nan nan nan nan nan nan nan nan nan nan nan nan nan nan 1 1 nan nan nan nan nan nan nan nan nan nan nan nan nan nan nan nan nan nan nan nan nan 1 1 nan nan nan nan nan nan nan nan nan nan nan nan nan nan nan nan nan nan nan nan nan nan nan nan nan
nan nan nan nan nan nan nan nan nan nan 1 3 nan nan nan nan nan nan nan nan nan nan nan nan nan nan nan nan nan nan nan nan nan nan nan nan nan nan nan nan nan nan nan nan nan nan nan nan nan nan nan nan nan nan nan nan nan nan nan 0 0 nan nan nan nan nan nan nan nan nan nan nan nan nan nan nan nan nan nan nan nan nan nan nan nan nan
nan nan nan nan nan nan nan nan 0 0 2 5 nan nan nan nan nan nan nan nan nan nan nan nan nan nan nan nan nan nan nan nan nan nan nan nan nan nan nan nan nan nan nan nan nan nan nan nan nan nan nan nan nan nan nan nan nan nan nan nan nan nan nan nan nan nan nan nan nan nan nan nan nan nan nan nan nan nan nan nan nan nan nan nan nan nan
nan nan nan nan nan nan nan nan 0 0 1 2 nan nan nan nan nan nan nan nan nan nan nan nan nan nan nan nan nan nan nan nan nan nan nan nan nan nan nan nan nan nan nan nan nan nan nan nan nan nan nan nan nan nan nan nan nan nan nan nan nan nan nan nan nan nan nan nan nan nan nan nan nan nan nan nan nan nan nan nan nan nan nan nan nan nan
nan nan nan nan nan nan nan nan 0 0 1 1 0 0 nan nan nan nan nan nan nan nan nan nan nan nan nan nan nan nan nan nan nan nan nan nan nan nan nan nan nan nan nan nan nan nan nan nan nan nan nan nan nan nan nan nan nan nan nan nan nan nan nan nan nan nan nan nan nan nan nan nan nan nan nan nan nan nan nan nan nan nan nan nan nan nan
nan nan nan nan nan nan nan 0 0 0 2 1 3 3 nan nan nan nan nan nan nan nan nan nan nan nan nan nan nan nan nan nan nan nan nan nan nan nan nan nan nan nan nan nan nan nan nan nan nan nan nan nan nan nan nan nan nan nan nan nan nan nan nan nan nan nan nan nan nan nan nan nan nan nan nan nan nan nan nan nan nan nan nan nan nan nan
nan nan nan nan nan nan nan 0 1 1 0 1 4 4 nan nan nan nan nan nan nan nan nan nan nan nan nan nan nan nan nan nan nan nan nan nan nan nan nan nan nan nan nan nan nan nan nan nan nan nan nan 4 nan nan nan nan nan nan nan nan nan nan nan nan nan nan nan nan nan nan nan nan nan nan nan nan nan nan nan nan nan nan nan nan nan nan
CIN
nan nan nan nan nan nan nan nan nan nan nan nan nan nan nan nan nan nan nan nan nan nan nan nan nan nan nan nan nan nan -5 -0 -0 -0 -0 -0 -0 -0 -0 -0 -0 -0 -0 -0 -0 -0 -0 -0 -0 -0 -0 -0 -0 -0 -0 -0 -0 -0 -0 -0 -0 -0 -0 -0 -0 -0 -0 -0 -0 -0 -0 -0 -0 -0 -0 -0 -0 -0 -0 -0 -0 -0 -0 -0 -0 -0
nan nan nan nan nan nan nan nan nan nan nan nan nan nan nan nan nan nan nan nan nan nan nan nan nan nan nan nan nan nan -3 -0 -0 -0 -0 -0 -0 -0 -0 -0 -0 -0 -0 -0 -0 -0 -0 -0 -0 -0 -0 -0 -0 -0 -0 -0 -0 -0 -0 -0 -0 -0 -0 -0 -0 -0 -0 -0 -0 -0 -0 -0 -0 -0 -0 -0 -0 -0 -0 -0 -0 -0 -0 -0 -0 -0
nan nan nan nan nan nan nan nan nan nan nan nan nan nan nan nan nan nan nan nan nan nan nan nan nan nan nan nan nan nan -2 -0 -0 -0 -0 -0 -0 -0 -0 -0 -0 -0 -0 -0 -0 -0 -0 -0 -0 -0 -0 -0 -0 -0 -0 -0 -0 -0 -0 -0 -0 -0 -0 -0 -0 -0 -0 -0 -0 -0 -0 -0 -0 -0 -0 -0 -0 -0 -0 -0 -0 -0 -0 -0 -0 -0
nan nan nan nan nan nan nan nan nan nan nan nan nan nan nan nan nan nan nan nan nan nan nan nan nan nan nan nan nan nan -0 -0 -0 -0 -0 -0 -0 -0 -0 -0 -0 -0 -0 -0 -0 -0 -0 -0 -0 -0 -0 -0 -0 -0 -0 -0 -0 -0 -0 -0 -0 -0 -0 -0 -0 -0 -0 -0 -0 -0 -0 -0 -0 -0 -0 -0 -0 -0 -0 -0 -0 -0 -0 -0 -0 -0
nan nan nan nan nan nan nan nan nan nan nan nan nan nan nan nan nan nan nan nan nan nan nan nan nan nan nan nan nan nan -0 -0 -0 -0 -0 -0 -0 -0 -0 -0 -0 -0 -0 -0 -0 -0 -0 -0 -0 -0 -0 -0 -0 -0 -0 -0 -0 -0 -0 -0 -0 -0 -0 -0 -0 -0 -0 -0 -0 -0 -0 -0 -0 -0 -0 -0 -0 -0 -0 -0 -0 -0 -0 -0 -0 -0
nan nan nan nan nan nan nan nan nan nan nan nan nan nan nan nan nan nan nan nan nan nan nan nan nan nan nan nan nan nan -1 -0 -0 -0 -0 -0 -0 -0 -0 -0 -0 -0 -0 -0 -0 -0 -0 -0 -0 -0 -0 -0 -0 -0 -0 -0 -0 -0 -0 -0 -0 -0 -0 -0 -0 -0 -0 -0 -0 -0 -0 -0 -0 -0 -0 -0 -0 -0 -0 -0 -0 -0 -0 -0 -0 -0
nan nan nan nan nan nan nan nan nan nan nan nan nan nan nan nan nan nan nan nan nan nan nan nan nan nan nan nan -29 -29 -2 -0 -0 -0 -0 -0 -0 -0 -0 -0 -0 -0 -0 -0 -0 -0 -0 -0 -0 -0 -0 -0 -0 -0 -0 -0 -0 -0 -0 -0 -0 -0 -0 -0 -0 -0 -0 -0 -0 -0 -0 -0 -0 -0 -0 -0 -0 -0 -0 -0 -0 -0 -0 -0 -0 -0
nan nan nan nan nan nan nan nan nan nan nan nan nan nan nan nan nan nan nan nan nan nan nan nan nan nan nan nan nan nan nan nan nan nan nan nan -0 -0 -0 -0 -0 -0 -0 -0 -0 -0 -0 -0 -0 -0 -0 -0 -0 -0 -0 -0 -0 -0 -0 -0 -0 -0 -0 -0 -0 -0 -0 -0 -0 -0 -0 -0 -0 -0 -0 -0 -0 -0 -0 -0 -0 -0 -0 -0 -0 -0
nan nan nan nan nan nan nan nan nan nan nan nan nan nan nan nan nan nan nan nan nan nan nan nan nan nan nan nan nan nan nan nan nan nan nan nan nan nan nan -0 -0 -0 -0 -0 -0 -0 -0 -0 -0 -0 -0 -0 -0 -0 -0 -0 -0 -0 -0 -0 -0 -0 -0 -0 -0 -0 -0 -0 -0 -0 -0 -0 -0 -0 -0 -0 -0 -0 -0 -0 -0 -0 -0 -0 -0 -0
nan nan nan nan nan nan nan nan nan nan nan nan nan nan nan nan nan nan nan nan nan nan nan nan nan nan nan nan nan nan nan nan nan nan -9 nan -0 -0 nan nan nan -0 -0 -0 -0 -0 -0 -0 -0 -0 -0 -0 -0 -0 -0 -0 -0 -0 -0 -0 -0 -0 -0 -0 -0 -0 -0 -0 -0 -0 -0 -0 -0 -0 -0 -0 -0 -0 -0 -0 -0 -0 -0 -0 -0 -0
nan nan nan nan nan nan nan nan nan nan nan nan nan nan nan nan nan nan -1 -6 -6 nan -17 -16 -16 nan nan nan nan nan nan nan nan nan nan nan nan nan nan nan nan -0 -0 -0 -0 -0 -0 -0 -0 -0 -0 -0 -0 -0 -0 -0 -0 -0 -0 -0 -0 -0 -0 -0 -0 -0 -0 -0 -0 -0 -0 -0 -0 -0 -0 -0 -0 -0 -0 -0 -0 -0 -0 -0 -0 -0
nan nan nan nan nan nan nan nan nan nan nan nan nan nan -9 nan nan nan -1 -1 -1 -3 -4 -4 -4 nan nan nan nan nan nan nan nan nan nan nan nan nan nan nan nan nan -1 -0 -0 -0 -0 -0 -0 -0 -0 -0 -0 -0 -0 -0 -0 -0 -0 -0 -0 -0 -0 -0 -0 -0 -0 -0 -0 -0 -0 -0 -0 -0 -0 -0 -0 -0 -0 -0 -0 -0 -0 -0 -0 -0
nan nan nan nan nan -17 nan nan -24 -24 -10 -3 -1 -1 -1 -3 -5 -5 -2 -2 -2 -2 -5 -8 -8 nan nan nan nan nan nan nan nan nan nan nan nan nan nan nan nan nan nan nan nan nan -0 -0 -0 -0 -0 -0 -0 -0 -0 -0 -0 -0 -0 -0 -0 -0 -0 -0 -0 -0 -0 -0 -0 -0 -0 -0 -0 -0 -0 -0 -0 -0 -0 -0 -0 -0 -0 -0 -0 -0
nan nan nan nan nan -6 -4 -4 -1 -1 -1 -3 -2 -2 -1 -2 -3 -3 -2 -2 -2 -4 -21 nan nan nan nan nan nan nan nan nan nan nan nan nan nan nan nan nan nan nan nan nan nan nan nan -1 -1 nan -0 -0 -0 -0 -0 -0 -0 -0 -0 -0 -0 -0 -0 -0 -0 -0 -0 -0 -0 -0 -0 -0 -0 -0 -0 -0 -0 -0 -0 -0 -0 -0 -0 -0 -0 -0
nan nan -1 -1 -1 -2 -2 -2 -1 -1 -1 -3 -5 -5 -3 -3 -2 -2 -1 -2 -2 -7 nan nan nan nan nan nan nan nan nan nan nan nan nan nan nan nan nan nan nan nan nan nan nan nan nan nan nan nan nan nan -0 -0 -0 -0 -0 -0 -0 -0 -0 -0 -0 -0 -0 -0 -0 -0 -0 -0 -0 -0 -0 -0 -0 -0 -0 -0 -0 -0 -0 -0 -0 -0 -0 -0
-0 -1 -1 -1 -1 -1 -2 -2 -1 -1 -2 -4 -2 -2 -1 -1 -1 -1 -1 -2 -2 -7 nan nan nan nan nan nan nan nan nan nan nan nan nan nan nan nan nan nan nan nan nan nan nan nan nan nan nan nan nan -0 -0 -0 -0 -0 -0 -0 -0 -0 -0 -0 -0 -0 -0 -0 -0 -0 -0 -0 -0 -0 -0 -0 -0 -0 -0 -0 -0 -0 -0 -0 -0 -0 -0 -0
-1 -1 -2 -2 -2 -1 -2 -2 -1 -1 -3 -5 -0 -0 -0 -2 -4 -4 -3 -3 -3 -5 -3 -3 -3 nan nan nan nan nan nan nan nan nan nan nan nan nan nan nan nan nan nan nan nan nan nan nan nan nan nan -0 -0 -0 -0 -0 -0 -0 -0 -0 -0 -0 -0 -0 -0 -0 -0 -0 -0 -0 -0 -0 -0 -0 -0 -0 -0 -0 -0 -0 -0 -0 -0 -0 -0 -0
-2 -2 -1 -1 -1 -1 -1 -2 -1 -1 -1 -1 -0 -0 -2 -6 -7 -7 -5 -4 -4 -4 nan nan nan nan nan nan nan nan nan nan nan nan nan nan nan nan nan nan nan nan nan nan nan nan nan nan nan nan nan -0 -0 -0 -0 -0 -0 -0 -0 -0 -0 -0 -0 -0 -0 -0 -0 -0 -0 -0 -0 -0 -0 -0 -0 -0 -0 -0 -0 -0 -0 -0 -0 -0 -0 -0
-2 -1 -1 -0 -0 -0 -1 nan -4 -4 -0 -0 -1 -1 nan -10 -9 -9 -4 -3 -3 nan nan nan nan nan nan nan nan nan nan nan nan nan -2 nan nan nan nan nan nan nan nan nan nan nan nan nan nan nan -0 -0 -0 -0 -0 -0 -0 -0 -0 -0 -0 -0 -0 -0 -0 -0 -0 -0 -0 -0 -0 -0 -0 -0 -0 -0 -0 -0 -0 -0 -0 -0 -0 -0 -0 -0
nan nan nan -4 -4 -0 -1 -1 -0 -0 -0 -0 nan nan nan nan nan nan -4 nan nan nan nan nan nan nan nan nan nan nan nan nan nan nan -3 nan nan nan nan nan nan nan nan nan nan nan nan nan nan nan -0 -0 -0 -0 -0 -0 -0 -0 -0 -0 -0 -0 -0 -0 -0 -0 -0 -0 -0 -0 -0 -0 -0 -0 -0 -0 -0 -0 -0 -0 -0 -0 -0 -0 -0 -0
nan nan nan nan nan nan -1 -0 -0 -0 -0 -0 nan nan nan nan nan nan -1 nan nan nan nan nan nan nan nan nan nan nan nan nan -7 -7 -2 nan nan nan nan nan nan nan nan nan nan nan nan nan nan nan nan -0 -0 -0 -0 -0 -0 -0 -0 -0 -0 -0 -0 -0 -0 -0 -0 -0 -0 -0 -0 -0 -0 -0 -0 -0 -0 -0 -0 -0 -0 -0 -0 -0 -0 -0
nan nan nan nan nan nan -4 -9 -0 -0 -0 nan nan nan nan nan nan nan -2 nan nan nan nan nan nan nan nan nan nan nan nan nan -10 -10 -3 nan nan nan nan nan nan nan nan nan nan nan nan nan nan nan nan -0 -0 -0 -0 -0 -0 -0 -0 -0 -0 -0 -0 -0 -0 -0 -0 -0 -0 -0 -0 -0 -0 -0 -0 -0 -0 -0 -0 -0 -0 -0 -0 -0 -0 -0
nan nan nan nan nan -23 -21 nan -14 -14 -0 nan nan nan nan nan nan nan nan nan nan nan nan nan nan nan nan nan nan nan nan nan nan nan -7 nan nan nan nan nan nan nan nan nan nan nan nan nan nan nan nan -0 -0 -0 -0 -0 -0 -0 -0 -0 -0 -0 -0 -0 -0 -0 -0 -0 -0 -0 -0 -0 -0 -0 -0 -0 -0 -0 -0 -0 -0 -0 -0 -0 -0 -0
nan nan nan nan nan -27 nan nan nan nan nan nan nan nan nan nan nan nan nan nan nan nan nan nan nan nan nan nan nan nan nan nan nan nan nan nan nan nan nan nan nan -2 nan nan nan nan nan nan nan nan nan nan -0 -0 -0 -0 -0 -0 -0 -0 -0 -0 -0 -0 -0 -0 -0 -0 -0 -0 -0 -0 -0 -0 -0 -0 -0 -0 -0 -0 -0 -0 -0 -0 -0 -0
nan -23 -12 -11 -11 -7 -20 nan nan nan nan nan nan nan nan nan nan nan nan nan nan nan nan nan nan nan nan nan nan nan nan nan nan nan nan nan nan nan nan nan nan -1 nan nan nan nan nan nan nan nan nan nan nan nan -0 -0 -0 -0 -0 -0 -0 -0 -0 -0 -0 -0 -0 -0 -0 -0 -0 -0 -0 -0 -0 -0 -0 -0 -0 -0 -0 -0 -0 -0 -0 -0
-12 -4 -3 -0 -0 -0 -0 -0 -0 -0 -8 -8 nan nan nan nan nan nan nan nan nan nan nan nan nan nan nan nan nan nan nan nan nan nan nan -4 -2 -2 nan nan nan -0 nan nan nan nan nan nan nan nan nan nan nan nan -0 -0 -0 -0 -0 -0 -0 -0 -0 -0 -0 -0 -0 -0 -0 -0 -0 -0 -0 -0 -0 -0 -0 -0 -0 -0 -0 -0 -0 -0 -0 -0
-0 -0 -0 -0 -0 -0 -0 -0 -0 -0 -0 -0 -1 -1 nan nan nan nan nan nan nan nan nan nan nan nan nan nan nan nan nan nan nan nan nan nan -1 -1 nan nan nan nan nan nan nan nan nan nan nan nan nan nan nan nan nan -0 -0 -0 -0 -0 -0 -0 -0 -0 -0 -0 -0 -0 -0 -0 -0 -0 -0 -0 -0 -0 -0 -0 -0 -0 -0 -0 -0 -0 -0 -0
-0 -0 -0 -0 -0 -0 -0 -0 -0 -0 -0 -0 -0 -0 -22 nan nan nan nan -4 -4 -8 -5 nan nan nan nan nan nan nan nan nan nan nan nan -6 -4 -4 nan nan nan nan nan nan nan nan nan nan nan nan nan nan nan nan nan -0 -0 -0 -0 -0 -0 -0 -0 -0 -0 -0 -0 -0 -0 -0 -0 -0 -0 -0 -0 -0 -0 -0 -0 -0 -0 -0 -0 -0 -0 -1
-0 -0 -0 -0 -0 -0 -0 -0 -0 -0 -0 -0 -0 -0 -17 nan -0 -0 -4 -9 -9 -8 -4 -2 -2 -2 -2 nan nan nan nan nan nan nan nan -7 -4 -4 nan nan nan nan nan nan nan nan nan nan nan nan nan nan nan nan nan nan nan nan -0 -0 -0 -0 -0 -0 -0 -0 -0 -0 -0 -0 -0 -0 -0 -0 -0 -0 -0 -0 -0 -0 -0 -0 -0 -0 -0 -2
nan nan nan nan nan -0 nan nan -0 -0 -0 -0 -0 -0 -0 nan -0 -0 -6 -10 -10 -3 -2 -1 -1 -1 -2 nan nan nan nan nan nan nan -19 -5 nan nan nan nan nan nan nan nan nan nan nan nan nan nan nan nan nan nan nan nan nan nan nan -0 -0 -0 -0 -0 -0 -0 -0 -0 -0 -0 -0 -0 -0 -0 -0 -0 -0 -0 -0 -0 -0 -0 -1 -2 -2 -3
nan nan nan nan nan nan nan nan nan nan -0 -0 -0 -0 -1 nan -12 -12 -7 -8 -8 -2 -1 -1 -1 -2 -2 -2 nan nan nan nan nan nan -6 -1 nan nan nan nan nan nan nan nan nan nan nan nan nan nan nan nan nan nan nan nan nan nan nan nan nan nan -0 -0 -0 -0 -0 -0 -0 -0 -0 -0 -0 -0 -0 -0 -0 -0 -0 -0 -0 -0 -2 -3 -3 -4
nan nan nan nan nan nan nan nan nan nan nan nan nan nan -0 -0 -0 -0 nan nan nan nan -0 -0 -0 nan nan nan nan nan nan nan -10 -10 -0 -2 nan nan nan nan nan nan nan -7 -7 -4 nan nan nan nan nan nan nan nan nan nan nan nan nan nan nan nan nan -0 -0 -0 -0 -0 -0 -0 -0 -0 -0 -0 -0 -0 -0 -0 -0 -0 -0 -0 -1 -3 -3 -1
nan nan nan nan nan nan nan nan nan nan nan nan nan nan nan -1 -0 -0 nan nan nan nan nan nan nan -0 nan nan nan nan nan nan nan nan -0 nan nan nan nan nan nan nan nan nan nan nan nan nan nan nan nan nan nan nan nan nan nan nan nan nan nan nan nan nan nan nan -0 -0 -0 -0 -0 -0 -0 -0 -0 -0 -0 -0 -0 -0 -0 -0 -0 -4 -4 -1
nan nan nan nan nan nan nan nan nan nan nan nan nan nan -1 nan nan nan nan nan nan nan nan nan nan -0 -0 -0 nan nan nan nan nan nan -1 nan nan nan nan nan nan nan -4 -3 -3 nan nan nan nan nan nan nan nan nan nan nan nan nan nan nan nan nan nan nan nan nan nan nan nan nan nan -0 -0 -0 -0 -0 -0 -0 -0 -0 -0 -0 -0 -0 -0 -1
nan nan nan nan nan nan nan nan nan nan nan nan nan nan nan nan nan nan nan nan nan nan nan nan nan nan nan -0 -0 -0 nan nan nan nan -0 nan nan nan nan nan nan nan nan nan nan nan nan nan nan -0 nan nan nan nan nan nan nan nan nan nan nan nan nan nan nan nan nan nan nan nan nan nan nan nan -0 -0 -0 -0 -0 -0 -0 -0 -0 -0 -0 -0
nan nan nan nan nan nan nan nan nan nan nan nan nan nan nan nan nan nan nan nan nan nan nan nan nan nan nan nan nan nan nan nan nan nan nan nan nan nan nan nan nan nan nan -0 -0 -1 nan nan nan -0 -0 nan nan nan nan nan nan nan nan nan nan nan nan nan nan nan nan nan nan nan nan nan nan nan -0 -0 -0 -0 -0 -0 -0 -0 -0 -0 -0 -0
nan nan nan nan nan nan nan nan nan nan nan nan nan nan nan nan nan nan nan nan nan nan nan nan nan nan nan nan nan nan nan nan nan nan nan nan nan nan nan nan nan nan nan nan nan -1 -1 nan nan nan nan nan nan nan nan nan nan nan nan nan nan nan nan nan nan nan nan nan nan nan nan nan -0 -0 -0 -0 -0 -0 -0 -0 -0 -0 -0 -0 -0 -0
nan nan nan nan nan nan nan nan nan nan nan nan nan nan nan nan nan nan nan nan nan nan nan nan nan nan nan nan nan nan nan nan nan nan nan nan nan nan nan nan nan nan nan nan nan nan nan nan nan nan nan nan nan nan nan nan nan nan nan nan nan nan nan nan nan nan nan nan -0 -0 -0 -0 nan nan nan -3 nan nan nan nan nan -0 -0 -0 -0 -0
nan nan nan nan nan nan nan nan nan nan nan nan nan nan nan nan nan nan nan nan nan nan nan nan nan nan nan nan nan nan nan nan nan nan nan nan nan nan nan nan nan nan nan nan nan nan nan nan nan nan nan nan nan nan nan nan nan nan nan nan nan nan nan nan nan nan nan nan -0 -0 nan nan nan nan nan nan nan nan nan nan nan nan nan nan nan -0
nan nan nan nan nan nan nan nan nan nan nan -12 nan nan nan nan nan nan nan nan nan nan nan nan nan nan nan nan nan nan nan nan nan nan nan nan nan nan nan nan nan nan nan nan nan nan nan nan nan nan nan nan nan nan nan nan nan nan nan nan nan nan nan nan nan nan nan nan nan nan nan nan nan nan nan nan nan nan nan nan nan nan nan nan nan nan
nan nan nan nan nan nan nan nan nan nan nan nan nan nan nan nan nan nan nan nan nan nan nan nan nan nan nan nan nan nan nan nan nan nan nan nan nan nan nan nan nan nan nan nan nan nan nan nan nan nan nan nan nan nan nan nan nan nan -0 nan nan nan nan nan nan nan nan nan nan nan nan -1 -1 -1 nan nan nan nan nan nan nan nan nan nan nan nan
-0 nan nan nan nan nan nan nan -11 -11 -16 nan nan nan nan nan nan nan nan nan nan nan nan nan nan nan nan nan nan nan nan nan nan nan nan nan nan nan nan nan nan nan nan nan nan nan nan nan nan nan nan nan nan nan nan nan nan nan nan nan nan nan nan nan nan nan nan nan nan nan -0 nan nan nan nan nan nan nan nan nan nan nan nan nan nan nan
nan nan nan nan nan nan nan nan -6 -6 nan nan nan nan nan nan nan nan nan nan nan nan nan nan nan nan nan nan nan nan nan nan nan nan nan nan nan nan nan nan nan nan nan nan nan nan nan nan nan nan nan nan nan nan nan nan nan nan nan nan nan nan nan nan nan nan nan nan nan nan nan nan nan nan nan nan nan nan nan nan nan nan nan nan nan nan
nan nan nan nan nan nan nan nan nan nan -9 -5 nan nan nan nan nan nan nan nan nan nan nan nan nan nan nan nan nan nan nan nan nan nan nan nan nan nan nan nan nan nan nan nan nan nan nan nan nan nan nan nan nan nan nan nan nan nan nan nan nan nan nan nan nan nan nan nan nan nan nan nan nan nan nan nan nan nan nan nan nan nan nan nan nan nan
nan nan nan nan nan nan nan nan nan nan -8 -3 nan nan nan nan nan nan nan nan nan nan nan nan nan nan nan nan nan nan nan nan nan nan nan nan -0 -0 nan nan nan nan nan nan nan nan nan nan nan nan nan nan nan nan nan nan nan nan nan -0 -0 nan nan nan nan nan nan nan nan nan nan nan nan nan nan nan nan nan nan nan nan nan nan nan nan nan
nan nan nan nan nan nan nan nan nan nan -8 -3 nan nan nan nan nan nan nan nan nan nan nan nan nan nan nan nan nan nan nan nan nan nan nan nan nan nan nan nan nan nan nan nan nan nan nan nan nan nan nan nan nan nan nan nan nan nan nan -1 -1 nan nan nan nan nan nan nan nan nan nan nan nan nan nan nan nan nan nan nan nan nan nan nan nan nan
nan nan nan nan nan nan nan nan -11 -11 -5 -1 nan nan nan nan nan nan nan nan nan nan nan nan nan nan nan nan nan nan nan nan nan nan nan nan nan nan nan nan nan nan nan nan nan nan nan nan nan nan nan nan nan nan nan nan nan nan nan nan nan nan nan nan nan nan nan nan nan nan nan nan nan nan nan nan nan nan nan nan nan nan nan nan nan nan
nan nan nan nan nan nan nan nan -9 -9 -4 -2 nan nan nan nan nan nan nan nan nan nan nan nan nan nan nan nan nan nan nan nan nan nan nan nan nan nan nan nan nan nan nan nan nan nan nan nan nan nan nan nan nan nan nan nan nan nan nan nan nan nan nan nan nan nan nan nan nan nan nan nan nan nan nan nan nan nan nan nan nan nan nan nan nan nan
nan nan nan nan nan nan nan nan -8 -8 -4 -4 -6 -6 nan nan nan nan nan nan nan nan nan nan nan nan nan nan nan nan nan nan nan nan nan nan nan nan nan nan nan nan nan nan nan nan nan nan nan nan nan nan nan nan nan nan nan nan nan nan nan nan nan nan nan nan nan nan nan nan nan nan nan nan nan nan nan nan nan nan nan nan nan nan nan nan
nan nan nan nan nan nan nan -7 -5 -5 -3 -3 -1 -1 nan nan nan nan nan nan nan nan nan nan nan nan nan nan nan nan nan nan nan nan nan nan nan nan nan nan nan nan nan nan nan nan nan nan nan nan nan nan nan nan nan nan nan nan nan nan nan nan nan nan nan nan nan nan nan nan nan nan nan nan nan nan nan nan nan nan nan nan nan nan nan nan
nan nan nan nan nan nan nan -6 -3 -3 -4 -5 -1 -1 nan nan nan nan nan nan nan nan nan nan nan nan nan nan nan nan nan nan nan nan nan nan nan nan nan nan nan nan nan nan nan nan nan nan nan nan nan -0 nan nan nan nan nan nan nan nan nan nan nan nan nan nan nan nan nan nan nan nan nan nan nan nan nan nan nan nan nan nan nan nan nan nan
Wind_Speed
2 2 2 2 2 3 3 3 3 3 3 4 4 4 5 6 6 6 7 7 6 5 5 5 5 6 7 10 12 14 14 14 15 15 16 16 17 17 18 18 19 20 21 21 21 22 22 22 22 23 23 23 23 23 23 23 23 23 23 23 22 22 22 21 21 21 22 22 22 23 23 23 23 22 22 23 23 23 23 23 22 22 22 21 21 20
2 2 2 2 3 2 3 3 3 3 3 4 5 5 6 6 6 6 6 6 6 5 5 5 5 5 5 7 10 13 14 15 15 16 16 17 17 17 18 19 19 20 21 21 21 22 22 22 23 23 23 23 23 22 22 22 22 22 22 22 21 21 21 21 21 21 22 22 23 23 24 24 23 23 23 23 23 23 23 23 22 22 22 21 21 20
2 2 3 3 2 2 2 3 2 2 3 4 5 5 5 5 5 5 5 5 5 5 5 4 4 4 5 6 9 12 14 15 16 17 17 17 17 18 18 19 20 20 21 21 22 22 23 23 23 23 23 23 22 22 22 22 22 22 22 21 21 21 21 20 20 21 21 22 23 23 24 24 23 23 22 22 21 21 21 21 22 22 22 21 21 20
2 2 3 2 2 2 2 2 2 3 3 4 4 5 4 4 4 4 4 5 5 5 5 4 4 4 4 5 7 11 14 16 17 17 17 17 17 18 19 19 20 20 21 22 22 23 23 23 23 23 23 22 22 22 22 22 22 22 22 22 22 22 22 21 21 21 21 22 22 22 23 23 22 22 22 21 20 19 19 20 20 20 20 20 20 20
2 2 2 2 2 2 2 2 2 3 4 4 4 4 4 3 3 4 4 4 4 4 4 4 3 3 3 3 6 10 14 16 17 17 17 17 17 18 19 19 20 21 21 22 22 23 23 23 23 22 22 22 21 21 21 22 22 22 22 23 23 23 23 23 22 22 22 22 22 22 21 21 21 20 20 20 19 19 18 18 19 19 19 19 19 20
2 2 2 1 1 2 2 2 2 3 3 3 3 3 3 3 3 3 3 3 3 3 3 3 3 3 3 4 6 10 13 15 16 16 16 17 17 18 19 20 20 21 22 22 22 22 22 22 21 21 21 21 21 21 21 22 22 22 23 23 23 23 23 23 22 22 22 22 22 21 21 20 19 19 18 18 18 18 18 18 18 18 18 19 19 20
2 2 2 1 1 1 1 2 2 2 2 2 2 3 2 2 2 2 3 2 2 2 2 2 3 3 3 5 7 9 11 12 13 14 14 16 17 18 19 20 21 21 21 21 21 21 21 20 20 20 21 21 21 22 22 22 22 23 23 23 23 23 22 22 22 22 22 21 21 21 20 20 19 19 18 18 18 18 18 18 18 19 19 20 21 22
3 2 2 2 2 2 2 2 2 2 2 2 2 3 2 2 2 2 3 2 2 2 2 2 2 3 3 5 6 7 7 7 8 9 11 12 14 16 18 19 20 20 20 20 20 20 19 20 20 20 21 21 22 22 22 22 22 22 22 22 22 22 22 22 21 21 21 21 21 20 20 20 20 20 20 20 20 20 20 21 21 22 22 23 23 24
2 3 2 2 2 2 2 2 2 2 2 2 2 2 3 2 2 2 2 2 2 2 2 2 3 3 3 3 4 5 6 6 6 6 8 9 10 13 15 17 17 18 19 18 18 18 19 19 20 20 21 22 22 22 22 22 22 22 22 21 21 21 21 21 21 21 21 20 20 20 20 21 21 21 22 22 22 22 22 23 23 23 24 24 24 25
2 2 3 2 2 1 1 2 2 2 2 1 1 1 2 2 3 3 3 3 2 2 2 2 3 4 4 3 3 4 5 6 8 10 11 12 13 14 15 15 15 15 17 17 17 18 18 19 20 21 21 22 22 22 22 22 21 21 21 21 21 21 21 21 21 21 20 20 20 20 20 21 21 21 22 22 22 22 23 23 23 23 23 24 24 25
2 2 2 2 2 1 1 2 2 2 2 2 1 1 1 2 3 4 5 5 4 3 2 3 4 4 5 4 3 3 4 5 6 8 11 13 15 15 15 14 14 14 15 15 16 16 18 19 20 21 21 21 21 21 21 21 21 21 21 21 21 20 20 20 20 20 20 20 20 20 21 21 21 21 22 22 22 22 22 22 23 23 23 23 24 24
2 2 2 2 2 2 1 2 2 2 2 2 3 3 3 2 2 3 5 6 6 5 4 4 4 4 4 3 3 3 3 4 5 6 7 8 9 10 10 10 11 11 11 12 13 14 16 18 19 20 20 20 21 21 21 21 20 21 21 21 20 20 20 20 20 20 20 21 21 21 21 21 22 22 22 22 22 22 22 22 22 23 23 23 23 24
2 2 2 2 2 2 2 2 2 2 2 3 4 4 4 3 3 3 4 5 6 6 5 5 5 4 3 2 2 3 4 5 5 5 5 5 6 6 6 6 6 6 6 6 7 9 13 16 17 18 19 19 20 21 21 21 20 21 21 21 20 20 20 20 20 21 21 21 21 21 22 22 22 22 22 22 22 22 22 22 22 22 23 23 23 23
2 2 2 2 2 2 3 3 3 3 3 3 3 4 4 3 3 3 4 5 5 5 5 5 5 4 3 1 2 3 5 5 6 6 6 5 5 4 4 4 4 4 4 4 5 7 11 12 12 12 16 17 18 19 19 20 20 21 21 21 20 20 20 20 20 21 21 21 21 21 21 22 22 22 22 22 22 22 22 22 22 22 22 23 23 23
2 3 3 3 3 3 3 3 3 3 3 3 3 3 3 3 3 4 5 5 5 5 4 5 5 4 3 2 2 4 5 5 5 6 6 6 5 4 4 4 4 4 3 4 5 7 9 8 7 8 10 13 15 17 18 18 19 20 20 20 20 20 20 20 20 21 21 21 21 21 21 21 21 22 22 22 22 22 22 22 22 22 22 22 23 23
3 3 3 3 3 3 3 3 3 3 3 3 3 3 4 4 4 5 5 5 5 5 5 6 5 4 3 2 3 4 5 5 5 5 6 6 5 4 3 3 4 4 4 5 5 6 6 6 6 7 8 13 17 19 20 19 20 20 20 20 20 20 20 20 20 20 20 21 21 21 21 21 21 21 21 21 21 21 22 22 22 22 22 22 22 23
2 3 3 3 3 3 3 3 3 3 3 3 3 3 4 4 4 4 4 5 5 5 5 5 5 5 4 3 3 4 5 5 5 5 6 6 5 4 3 3 4 5 5 5 5 5 6 6 6 6 8 13 17 20 20 20 20 20 20 20 20 20 20 20 20 20 20 20 20 21 21 21 21 21 21 21 21 22 22 22 22 22 22 22 22 23
2 3 3 3 3 3 4 3 3 3 3 3 3 3 3 3 3 3 4 4 4 5 5 4 4 4 4 4 4 4 4 4 4 5 6 6 6 4 3 3 4 5 5 6 5 5 5 5 5 7 10 16 19 20 20 19 19 20 20 20 20 20 20 20 20 20 20 20 20 20 21 21 21 21 21 21 21 22 22 22 22 22 22 22 22 22
3 3 3 3 3 3 3 3 3 3 3 3 3 3 3 3 3 3 3 4 4 4 4 4 3 3 3 4 5 5 4 3 4 5 6 7 6 5 3 3 4 5 6 6 6 5 5 5 7 10 15 18 19 19 19 19 19 19 20 20 20 20 20 20 20 20 20 20 20 20 21 21 21 21 21 21 21 21 21 21 22 22 22 22 22 22
2 3 2 2 3 3 3 3 3 3 3 3 3 2 2 3 3 3 4 3 3 3 3 3 3 3 3 4 4 5 4 3 4 4 6 6 6 5 4 4 5 6 6 6 5 4 5 4 6 9 14 16 18 18 19 19 19 19 20 20 20 20 20 20 20 20 20 20 21 21 21 21 21 21 21 21 21 21 21 21 21 21 22 22 22 22
2 3 3 2 3 3 3 3 3 3 3 3 2 2 2 2 3 3 4 3 3 3 3 3 3 3 3 3 4 5 4 4 4 5 5 5 5 5 4 4 5 6 6 6 5 5 5 5 5 6 10 14 16 18 19 19 19 20 20 20 20 20 20 20 20 20 21 21 21 21 21 21 21 21 21 21 21 21 21 21 21 22 22 22 22 22
2 3 3 3 3 3 3 3 3 3 3 3 3 2 2 2 3 3 3 3 3 3 3 3 3 3 3 3 4 5 4 3 3 4 5 5 6 6 5 5 5 6 6 6 6 5 5 4 5 6 9 14 16 18 18 19 19 20 20 20 20 21 21 21 21 21 21 21 21 21 21 21 21 21 21 21 21 21 21 21 22 22 22 22 22 22
2 2 3 3 3 3 3 3 2 1 2 2 2 2 2 2 2 2 2 2 3 3 3 3 4 3 3 3 4 4 3 2 2 3 4 6 7 7 6 6 6 7 7 6 6 6 6 5 5 6 9 13 16 17 18 19 19 20 20 20 21 21 21 21 21 21 21 21 21 21 21 21 21 21 21 21 21 21 22 22 22 22 22 22 22 21
2 2 3 3 3 3 3 3 2 1 1 1 1 2 2 2 1 1 1 2 2 3 3 3 3 3 3 3 3 3 3 2 2 2 4 5 6 6 6 6 7 8 8 7 7 7 6 6 5 5 5 10 14 16 18 19 20 20 20 21 21 21 21 21 21 21 21 21 21 21 22 22 21 21 21 22 22 22 22 22 22 22 22 22 21 20
3 3 3 4 5 6 6 5 4 2 1 1 1 2 3 3 2 2 1 2 2 3 3 3 3 3 3 3 3 3 3 2 2 3 4 5 6 7 6 6 7 8 8 7 7 7 6 6 5 4 4 7 11 15 17 19 20 20 21 21 21 21 21 21 21 21 21 21 21 21 22 21 21 22 22 22 22 22 22 22 22 22 22 21 20 19
7 8 8 9 10 11 11 11 10 9 8 5 4 4 3 3 3 3 2 3 3 4 5 4 4 4 4 3 3 3 3 3 2 2 3 4 6 6 5 5 7 8 9 8 7 7 7 6 5 4 4 5 8 12 16 18 20 20 21 21 21 22 22 21 21 21 21 21 21 21 21 21 22 22 22 22 22 22 22 22 22 22 21 19 18 17
13 13 14 14 14 14 14 13 13 13 13 12 10 7 5 3 3 4 5 5 5 5 6 6 6 5 5 5 4 4 4 3 2 2 3 4 5 6 5 6 7 8 9 8 7 7 8 7 5 4 4 4 5 9 15 17 19 20 21 21 21 22 21 21 21 21 21 21 21 21 21 21 21 22 22 22 22 22 22 22 22 21 20 17 15 13
15 15 15 15 14 14 14 14 13 13 13 14 13 11 7 4 4 5 6 5 5 5 6 6 6 6 5 6 5 5 4 3 2 3 3 4 5 5 5 6 6 7 8 7 7 7 7 5 4 4 4 4 5 7 12 15 17 18 19 20 21 21 21 21 21 21 21 21 21 21 21 21 21 22 22 22 22 22 22 22 22 20 17 13 10 8
13 14 14 15 14 14 13 12 12 13 14 14 13 11 7 4 4 4 4 4 4 5 5 6 6 5 5 5 5 4 3 3 3 3 4 4 4 5 5 6 6 7 7 7 7 6 4 3 2 2 3 6 6 7 8 11 13 14 15 18 19 20 20 21 21 21 21 21 21 21 21 21 22 22 22 22 22 22 22 23 21 17 12 10 8 7
9 10 10 11 11 10 9 8 9 11 13 13 13 11 7 4 3 3 3 3 4 4 5 6 6 6 6 6 5 4 3 3 3 4 5 5 5 5 6 6 6 6 6 7 6 6 4 3 2 2 4 6 7 7 6 7 8 8 9 13 15 16 19 20 21 21 21 21 21 21 21 21 22 22 22 22 22 22 22 23 19 14 8 7 7 7
6 6 6 7 7 6 6 5 6 7 9 10 10 9 7 5 3 3 3 3 3 4 4 5 5 5 6 5 5 4 3 3 5 6 6 5 5 5 6 6 6 6 6 5 5 6 7 5 4 4 5 6 7 7 6 6 7 7 7 8 10 12 16 18 19 19 19 20 20 21 21 21 22 22 22 22 22 22 22 22 19 14 8 7 7 7
5 5 5 5 5 5 5 5 5 5 6 6 6 6 6 6 5 4 3 3 3 3 4 4 5 5 5 4 4 4 4 4 5 7 7 5 4 4 5 6 6 6 5 4 4 4 5 6 6 6 6 6 6 6 7 7 7 7 7 8 8 10 14 16 16 17 16 18 19 20 20 21 21 21 22 22 22 22 22 23 20 15 9 8 7 8
5 4 4 5 5 5 5 5 5 5 5 4 4 4 5 6 6 6 4 4 3 3 3 4 5 5 5 4 4 4 3 3 5 7 8 5 4 4 5 5 6 6 5 4 4 4 4 5 6 6 7 6 6 5 6 6 7 7 7 8 8 9 12 12 12 12 13 14 15 16 17 18 19 20 21 21 21 22 22 23 21 18 13 9 7 8
5 5 5 5 5 5 5 5 5 5 5 5 5 5 5 5 5 5 5 4 4 3 3 3 4 5 5 5 4 4 3 3 5 7 7 5 4 4 5 5 6 6 6 5 5 4 4 5 6 6 6 6 5 5 5 5 6 7 6 7 7 7 9 9 9 10 10 11 10 10 12 13 15 16 18 19 20 21 22 22 22 20 18 12 9 8
5 5 5 5 5 5 5 5 5 5 5 5 6 6 6 5 5 5 5 4 4 3 3 3 3 3 4 4 5 4 4 4 5 7 7 4 3 3 4 4 5 6 6 6 5 5 4 6 7 7 7 7 6 5 4 4 5 6 6 7 7 7 7 7 8 8 9 9 9 8 9 9 10 12 13 16 18 20 21 22 21 21 20 18 14 11
4 5 5 5 5 5 5 5 5 5 5 5 5 5 6 5 5 5 4 4 4 4 4 4 3 3 2 3 4 4 5 5 6 7 6 4 2 2 3 3 4 5 6 6 6 5 5 6 7 8 8 7 6 5 5 5 5 6 7 7 7 7 7 7 7 7 8 8 9 9 9 9 9 10 11 16 18 20 21 21 21 21 20 20 18 16
5 5 5 4 4 4 5 5 4 4 4 4 5 5 6 5 5 5 5 4 4 4 5 5 5 4 4 3 3 4 5 5 5 5 5 3 2 1 2 3 4 5 5 6 6 6 6 7 7 7 7 6 5 6 6 7 7 7 7 8 7 7 7 7 7 7 8 9 9 9 9 9 9 10 11 15 17 17 18 19 19 19 20 20 19 19
5 5 5 4 4 4 5 5 5 4 4 4 5 5 5 5 5 5 5 5 5 5 4 4 5 6 8 7 6 5 5 5 5 5 4 2 1 1 2 3 3 4 4 5 6 6 6 6 7 7 6 5 6 7 7 8 8 8 8 7 7 6 6 6 7 7 8 9 9 10 10 10 10 9 10 11 11 11 11 12 13 15 17 16 17 18
5 5 5 5 5 5 5 5 4 4 4 4 4 5 5 5 5 5 4 5 5 5 4 4 4 5 7 8 8 8 7 6 5 4 3 1 1 1 2 3 4 4 4 4 5 5 5 5 6 6 6 6 6 7 6 6 7 8 9 8 7 5 6 6 7 7 8 8 9 10 10 9 9 9 9 9 9 9 9 9 10 11 12 10 11 13
5 5 5 6 6 5 5 5 4 4 4 4 4 4 5 5 5 5 4 4 4 4 4 4 4 4 5 6 6 6 6 5 4 4 2 1 1 1 2 3 4 4 4 4 4 4 5 5 6 6 6 6 6 6 6 6 7 8 10 8 7 6 7 7 7 7 7 8 8 9 9 9 9 9 9 9 9 9 8 8 8 9 10 8 7 8
5 5 5 5 5 5 5 5 5 4 4 3 3 4 4 5 5 5 6 5 5 5 4 5 4 4 3 4 4 4 4 4 4 4 2 2 2 2 2 3 3 4 5 4 3 3 4 4 5 5 5 5 6 6 6 6 8 10 11 9 8 8 8 8 7 7 7 8 8 9 9 10 10 10 10 10 9 8 7 8 8 9 9 7 7 7
6 5 5 5 5 5 4 4 5 5 4 3 3 4 5 5 5 6 6 7 7 7 7 7 7 6 5 4 4 3 3 4 4 4 3 3 3 3 3 3 4 4 4 4 4 4 4 4 4 4 4 4 4 5 5 6 7 8 8 8 9 9 9 7 6 6 8 8 8 9 10 9 9 9 10 9 9 8 8 8 9 9 9 7 6 5
5 5 5 4 4 4 5 5 5 5 4 3 3 4 4 4 5 5 6 6 7 7 7 7 6 6 6 5 5 4 3 3 3 3 4 4 4 4 4 5 5 4 4 4 4 4 4 4 4 4 4 4 4 4 6 6 7 7 7 8 8 8 6 6 6 7 7 8 8 8 9 8 8 8 8 8 8 8 7 8 10 10 9 7 6 5
5 4 4 4 4 4 4 4 4 4 4 4 4 4 4 4 5 5 5 5 6 6 6 6 5 5 5 6 6 6 5 3 3 3 3 5 6 7 6 6 6 5 3 3 4 4 5 5 4 4 4 3 3 4 5 6 6 6 6 7 8 7 6 7 8 9 9 8 8 8 9 9 9 9 8 7 7 7 6 7 7 7 7 6 6 5
4 4 4 4 4 4 4 4 4 4 4 4 4 4 4 5 5 5 5 5 6 6 6 6 6 6 6 7 7 6 6 5 4 3 3 5 8 9 8 7 6 6 5 4 4 4 4 5 5 4 3 3 3 4 5 6 6 7 7 8 8 7 7 7 8 8 9 9 9 9 10 10 10 9 8 7 7 6 6 7 7 7 6 6 5 5
4 4 4 4 4 4 5 5 5 4 4 4 4 4 4 4 4 5 5 5 6 6 5 5 5 5 6 7 7 7 8 7 7 6 5 5 5 6 6 6 7 6 5 5 4 4 4 4 4 4 4 3 3 4 4 5 6 6 7 8 8 7 7 7 7 7 8 8 9 10 10 11 10 9 9 9 8 7 6 6 6 7 7 6 6 5
5 5 5 5 5 5 5 5 5 4 4 5 5 4 4 4 5 5 6 5 5 5 6 5 5 5 5 6 6 7 8 9 9 8 7 7 6 6 6 6 7 7 6 6 5 5 5 5 5 4 3 3 3 3 3 4 5 6 7 8 8 8 7 7 7 7 7 8 9 9 10 10 9 9 9 9 8 7 6 6 5 5 5 5 5 5
5 5 5 5 5 5 4 4 5 5 5 5 5 4 4 5 6 7 5 6 5 6 6 6 6 6 6 5 5 6 7 8 8 8 8 8 8 7 8 7 7 7 7 7 6 6 5 5 5 4 3 3 2 3 3 4 5 6 6 7 7 7 8 8 8 8 8 8 8 9 9 8 8 9 9 9 9 8 7 7 6 5 5 5 5 5
5 5 5 5 5 5 5 5 5 5 6 6 6 5 4 4 6 7 5 5 5 5 6 6 6 6 6 6 6 7 8 7 7 8 8 8 8 8 8 8 8 7 6 6 5 5 4 4 3 4 4 4 3 2 4 4 5 6 6 6 6 7 7 8 8 8 8 8 8 8 7 6 7 7 8 9 9 9 9 8 7 6 5 5 5 5
5 5 5 5 5 5 5 5 5 5 6 6 6 6 5 4 5 5 5 5 5 5 5 5 6 6 6 6 7 7 8 8 7 7 7 7 8 8 9 9 9 8 7 7 6 5 5 4 3 2 4 3 2 3 4 5 6 6 6 5 5 6 7 8 8 9 9 9 9 8 7 6 6 6 6 8 9 9 9 9 8 7 6 5 5 6
5 5 5 5 5 5 5 5 5 6 6 6 6 6 5 5 5 5 5 6 6 6 5 5 5 5 6 6 7 7 8 7 8 8 8 7 8 8 8 9 9 9 8 8 7 7 6 6 5 4 4 5 5 6 4 5 6 6 6 6 6 6 6 7 8 9 10 10 9 8 8 7 7 6 6 7 8 9 9 9 9 9 8 7 7 7
Wind_Direction
290 290 304 344 350 341 327 340 354 359 351 348 346 342 340 338 334 327 324 322 319 316 314 314 315 318 318 319 322 325 329 333 335 337 337 336 334 333 331 330 329 328 327 327 326 325 325 325 324 324 323 323 323 323 324 324 325 325 325 324 323 322 322 322 321 320 318 317 316 316 317 317 317 317 317 315 313 311 309 308 306 304 302 301 300 300
302 307 320 355 2 350 320 330 347 358 349 343 340 337 336 333 329 325 323 322 321 319 318 317 319 320 318 317 324 331 334 337 338 338 337 335 333 332 331 330 330 329 328 327 326 326 325 325 324 323 322 323 324 325 326 327 328 329 329 328 327 326 325 324 323 322 321 320 319 319 318 319 319 319 318 317 315 313 311 310 308 305 303 303 303 303
319 325 326 343 353 346 315 318 330 344 343 335 333 332 331 328 326 324 323 323 322 322 321 323 325 326 321 318 327 334 337 338 339 338 336 334 333 332 332 331 331 330 328 327 327 326 325 324 323 322 322 323 325 326 328 328 329 330 331 331 330 329 327 326 325 324 322 321 320 319 319 320 321 321 320 319 317 315 313 312 309 308 307 308 309 309
322 322 315 323 329 325 297 303 318 331 337 330 327 327 327 325 324 321 319 320 321 323 323 328 331 328 322 318 325 332 337 338 338 337 336 335 334 333 333 333 332 330 329 328 326 325 324 323 322 322 323 325 327 328 329 330 330 331 331 331 330 329 328 327 325 324 322 321 320 320 320 322 323 323 322 320 318 316 314 312 310 310 311 312 312 311
306 302 298 313 318 308 289 300 316 328 332 329 327 327 328 323 319 317 318 322 322 322 323 328 328 324 317 314 323 331 336 338 338 337 337 336 335 335 335 334 332 330 329 327 326 325 324 324 324 325 327 329 331 332 332 332 332 332 332 331 330 328 327 326 324 323 322 321 321 321 322 323 323 321 320 318 317 316 314 312 311 311 312 312 312 311
293 287 291 308 311 306 303 313 326 333 333 330 329 328 326 322 320 319 321 325 324 321 319 320 316 312 310 312 324 332 336 338 338 338 338 338 339 338 337 335 333 331 329 327 327 326 326 327 328 330 332 334 335 335 335 335 334 333 332 331 329 327 326 324 323 322 321 321 321 322 323 322 320 318 315 314 314 313 312 311 310 311 310 310 310 310
293 295 306 312 312 308 315 321 328 333 337 331 328 328 328 328 327 325 318 320 317 312 309 308 308 311 315 318 326 331 336 338 340 341 341 342 341 340 338 335 333 331 329 329 328 328 330 332 334 335 337 338 337 337 336 335 334 333 331 329 327 325 324 323 322 321 320 320 321 322 323 321 319 317 314 314 314 313 313 313 313 314 314 314 313 313
306 313 328 329 327 326 323 316 320 330 342 334 331 331 333 339 335 326 319 319 315 310 310 313 317 322 323 322 326 331 339 342 342 343 343 343 342 340 337 335 333 332 331 331 331 332 334 336 337 338 338 338 337 336 335 334 332 331 329 327 325 324 323 322 321 320 320 321 322 323 323 322 321 320 318 318 318 318 319 319 319 319 320 319 317 317
315 321 323 323 324 327 323 315 317 328 349 345 339 335 334 337 335 330 327 324 321 318 322 329 330 329 323 319 324 334 347 352 351 347 343 343 341 339 336 334 333 332 333 334 335 336 338 338 339 339 339 338 337 336 334 332 330 328 327 325 324 323 322 322 321 321 321 322 324 324 324 323 322 321 320 320 320 320 321 321 321 321 320 319 318 316
322 318 310 304 304 311 318 312 313 323 358 358 352 340 335 334 334 334 333 326 319 316 323 335 334 329 322 321 333 349 354 354 349 346 342 341 339 337 335 334 333 333 334 336 338 339 340 340 339 339 339 338 337 335 333 331 329 327 325 324 323 323 323 322 322 323 323 324 325 325 325 323 322 321 320 320 319 319 320 320 319 319 318 317 316 315
322 312 302 300 299 300 300 298 303 316 347 355 356 355 348 334 333 333 331 328 327 328 333 340 337 331 323 328 345 0 357 349 345 342 341 339 338 336 334 332 331 331 334 337 339 341 341 340 340 339 339 338 336 334 332 330 328 326 325 325 325 324 324 324 325 325 326 326 326 325 324 323 322 321 320 319 319 318 318 318 318 318 317 316 315 313
311 303 300 299 304 311 315 309 308 317 341 352 351 348 345 340 334 330 326 328 331 335 338 338 335 326 316 324 340 351 352 348 342 339 338 337 336 333 330 329 328 329 332 336 339 340 340 339 339 339 338 336 335 333 331 329 328 327 326 326 326 326 326 327 327 327 327 327 326 325 324 323 322 321 320 319 318 318 318 318 318 317 316 315 314 312
301 295 294 298 307 323 339 337 336 336 346 352 347 341 338 337 335 331 326 328 331 335 336 333 329 321 309 322 345 355 354 349 343 338 335 333 329 325 322 321 321 323 329 334 336 337 337 337 337 336 335 333 332 331 330 329 328 328 329 329 329 329 329 329 329 329 328 327 326 325 324 323 322 321 320 319 319 319 318 318 317 316 315 314 313 311
323 319 319 323 331 340 348 345 341 341 347 348 341 334 327 329 334 337 333 330 332 333 330 327 323 319 312 322 0 11 6 353 343 335 332 327 320 314 311 311 312 315 323 330 331 330 332 333 333 332 331 330 329 328 328 329 329 330 331 331 331 331 331 331 330 330 329 327 326 325 324 323 322 321 320 320 319 319 319 318 317 315 314 313 311 310
347 347 345 344 344 345 345 341 338 338 341 339 331 324 324 335 343 346 340 334 332 331 326 321 319 316 312 311 351 10 9 354 341 331 327 320 312 304 301 306 309 315 326 330 327 326 327 328 325 322 323 324 325 326 328 330 331 333 333 333 333 333 332 332 331 330 329 327 326 325 324 323 322 321 320 320 320 319 318 317 315 314 312 311 310 309
0 357 349 341 339 340 339 336 336 336 336 334 332 336 346 352 352 350 342 334 330 329 328 327 325 324 320 327 355 7 3 350 337 326 321 315 309 302 300 310 317 321 328 328 325 322 321 320 317 315 316 321 324 327 329 331 333 334 335 335 334 334 333 332 331 330 329 328 327 326 325 324 323 322 321 320 320 318 317 315 314 312 311 310 310 309
0 354 346 338 336 336 335 336 337 338 335 333 342 357 6 359 352 344 338 332 330 330 331 332 330 329 328 336 351 359 357 345 332 320 316 313 310 308 310 320 323 323 325 324 321 317 315 313 313 313 314 320 325 328 330 332 333 335 335 335 335 334 334 333 332 331 330 329 328 326 325 324 323 322 321 320 319 317 316 315 313 312 311 310 310 308
1 357 349 342 339 336 336 338 340 343 340 347 359 9 11 358 345 336 333 334 333 332 332 333 332 329 328 329 329 332 342 339 327 318 315 315 315 316 321 326 325 322 322 319 315 311 308 307 310 313 315 322 325 327 330 332 334 335 336 336 335 335 335 334 333 332 330 329 328 327 325 324 323 322 321 320 318 317 316 315 314 313 312 310 309 308
1 357 351 346 343 342 341 339 342 347 357 2 4 2 356 348 339 335 338 340 339 337 334 333 329 324 320 312 308 311 327 331 323 316 318 318 318 318 324 331 328 323 319 315 310 306 303 301 306 311 316 321 324 327 330 333 335 336 336 336 336 335 335 334 333 332 331 329 328 327 325 324 323 322 321 320 319 318 317 316 315 313 312 311 310 308
0 354 350 346 346 347 345 344 350 2 12 9 5 358 352 341 339 342 349 347 343 337 329 324 319 314 306 300 300 306 320 330 327 321 320 319 317 319 327 334 329 322 317 312 308 304 304 302 306 311 316 320 323 327 331 334 335 336 336 336 336 336 335 335 334 333 331 330 328 327 326 325 324 323 322 321 320 319 318 317 316 315 314 313 312 311
6 358 351 352 355 354 349 347 356 10 23 16 10 3 356 344 342 348 353 346 339 332 329 322 311 301 291 294 298 303 315 330 330 325 321 319 318 322 331 334 328 320 315 313 311 310 310 308 306 308 313 320 324 328 332 334 335 335 336 336 336 336 336 335 334 333 331 330 328 327 327 326 326 325 324 323 322 321 321 320 319 318 317 316 316 316
16 357 344 351 357 357 348 337 346 8 31 27 22 14 2 354 352 353 354 344 335 327 322 310 294 282 275 279 285 293 307 317 322 321 321 321 322 325 332 331 325 320 317 318 318 318 316 313 308 308 313 321 326 330 333 335 335 335 336 336 336 336 336 335 334 333 331 330 329 329 328 328 328 327 327 326 325 324 324 323 322 321 320 320 320 322
14 349 337 344 350 351 342 326 322 353 45 49 42 30 13 0 353 344 335 324 313 304 294 281 277 275 272 271 278 287 298 293 297 311 324 325 324 326 330 329 326 324 322 322 322 321 320 316 312 310 313 323 328 331 334 335 335 335 336 336 337 336 336 335 334 333 332 331 330 330 330 330 330 329 329 328 328 327 327 326 325 324 324 324 325 327
3 352 345 348 351 352 341 325 307 257 149 110 75 44 18 5 348 313 284 280 278 278 279 282 294 303 297 288 288 292 296 289 300 323 334 327 324 324 327 328 327 326 324 323 322 321 319 317 314 313 313 324 329 332 334 335 335 336 336 337 337 336 336 336 334 333 333 332 332 332 332 332 331 331 331 330 330 329 329 328 327 327 327 329 331 332
10 8 5 7 9 9 4 355 355 3 94 129 98 54 25 8 352 327 290 286 290 297 305 323 333 332 318 316 314 310 303 296 318 343 344 328 321 321 324 329 328 326 324 323 323 322 320 317 316 317 318 323 329 332 334 335 335 336 337 337 337 336 336 335 335 334 333 333 333 333 332 332 332 332 332 332 331 331 331 331 330 330 331 333 335 336
24 22 19 19 18 17 14 9 8 11 16 31 50 54 31 10 355 348 349 348 343 340 341 345 344 340 332 332 329 324 315 311 331 354 349 326 319 320 325 332 331 327 323 323 323 324 320 317 317 320 323 320 326 330 333 334 335 336 337 337 337 336 336 335 335 334 334 333 333 333 333 333 333 333 333 333 333 333 333 333 333 334 335 338 338 337
26 25 22 21 21 20 19 16 14 14 17 25 33 39 37 16 1 2 7 2 355 351 350 350 346 341 337 338 334 328 320 321 333 345 342 324 319 321 328 334 333 328 323 322 321 321 317 315 315 317 318 313 318 326 332 334 335 335 336 336 336 336 336 335 334 334 334 334 334 333 333 333 333 334 334 334 334 334 335 335 336 337 339 341 340 336
22 22 20 20 20 19 19 17 16 18 22 26 30 33 34 23 11 8 7 358 351 349 351 349 344 339 336 334 329 323 317 318 323 329 333 326 322 324 330 334 333 330 326 321 317 314 312 307 305 307 310 315 321 327 331 333 333 334 334 335 335 335 335 334 334 334 334 334 334 334 334 334 334 335 335 335 336 336 336 337 338 340 342 341 338 330
15 15 14 13 13 13 14 13 14 16 21 25 26 27 27 24 15 7 355 345 343 346 349 346 342 337 330 325 320 317 314 311 319 329 336 330 326 326 331 333 335 334 330 323 318 314 308 298 293 301 313 327 330 331 329 331 331 331 332 333 333 333 333 334 334 335 335 335 335 335 335 335 335 336 336 337 337 338 338 339 341 342 343 340 334 327
6 7 6 5 4 4 6 6 9 12 16 19 19 19 17 17 10 358 342 341 342 345 344 341 338 334 329 325 323 322 320 322 334 342 343 336 331 329 332 334 336 337 337 331 326 322 317 310 311 324 332 333 332 330 326 328 328 329 329 331 331 332 332 334 334 335 335 335 335 335 336 336 336 337 337 338 338 339 339 341 343 344 342 336 330 327
359 0 358 355 353 354 358 2 5 7 8 10 10 9 9 8 4 355 348 346 343 340 337 334 333 330 330 328 327 326 322 329 344 350 348 339 330 329 332 332 333 336 340 338 332 326 320 319 324 335 341 334 330 327 325 326 328 329 329 329 329 330 331 333 334 335 335 335 335 335 336 336 337 337 338 338 339 339 340 342 344 345 341 335 330 327
0 2 358 353 351 353 358 2 4 3 2 0 0 1 5 5 2 358 354 347 341 334 330 327 325 324 324 322 318 315 314 321 340 348 349 339 329 326 331 329 328 330 335 336 329 319 314 315 320 327 334 330 326 324 324 327 329 330 331 330 328 328 330 332 334 334 334 334 334 335 335 336 336 337 338 338 338 339 340 342 343 344 341 335 330 326
5 6 4 359 358 359 1 1 1 1 1 356 354 358 6 4 1 357 352 345 339 332 326 325 323 321 319 314 309 304 305 310 331 342 348 341 331 324 328 327 326 325 326 327 320 308 299 304 310 316 321 321 321 321 322 326 329 331 332 331 327 326 329 331 332 332 332 332 333 333 334 335 336 336 337 337 337 338 339 341 342 342 341 336 330 326
7 10 10 6 4 2 1 359 0 1 2 356 356 0 5 1 357 353 348 342 336 329 320 320 322 322 321 317 312 307 302 302 321 334 347 345 334 325 326 327 326 325 326 324 320 313 302 303 308 312 313 315 316 318 320 325 329 331 331 328 326 324 326 329 329 329 329 330 330 331 332 333 334 335 335 336 336 337 338 339 340 340 340 338 333 328
10 12 13 10 7 4 1 0 1 2 2 357 357 358 0 356 350 345 340 335 329 322 312 309 309 312 315 314 313 310 305 300 317 331 345 347 338 326 324 327 329 329 326 324 322 320 313 311 312 313 312 314 315 316 320 324 328 329 327 326 324 323 323 325 326 326 327 329 329 330 331 331 332 333 333 333 334 335 336 337 337 338 338 338 336 332
12 12 13 9 6 4 1 1 1 1 0 356 354 353 354 350 344 337 331 325 321 317 314 311 305 294 285 285 290 294 295 297 312 326 340 345 340 326 322 324 329 330 327 323 322 321 316 313 313 314 315 315 315 317 321 326 328 329 328 327 325 323 321 322 323 325 327 329 331 332 331 331 331 332 330 331 332 332 333 334 335 335 336 336 335 333
15 12 9 6 3 1 359 359 359 358 358 354 351 349 349 343 338 331 324 319 316 314 314 315 313 309 303 276 262 264 275 288 302 316 332 340 343 328 317 316 323 327 326 322 320 319 317 315 315 316 316 315 315 318 322 327 330 332 331 328 326 324 322 323 325 327 329 331 331 331 331 331 330 329 327 329 330 331 331 332 333 333 334 333 332 331
17 12 5 1 0 359 358 357 355 353 353 351 348 346 344 337 330 322 317 313 309 307 308 312 313 313 314 307 295 281 278 286 295 306 321 330 343 337 323 314 317 320 319 316 315 315 316 315 316 316 315 313 311 314 319 324 327 328 326 323 321 320 320 323 327 330 333 332 331 329 329 329 328 327 326 328 329 329 329 329 330 331 331 330 330 329
15 10 2 1 359 358 355 351 349 345 344 342 343 343 341 332 325 317 309 306 303 300 295 294 296 300 304 304 303 302 301 302 305 309 317 312 307 316 325 319 315 312 310 307 307 308 308 308 309 310 311 311 313 315 317 320 322 321 320 320 321 322 324 327 330 332 334 332 329 328 327 327 326 326 326 327 328 328 327 325 326 327 328 326 325 326
13 7 1 359 356 353 349 344 340 336 334 332 335 341 344 339 334 329 321 318 315 311 302 294 288 285 286 290 295 300 305 308 311 314 313 298 281 290 314 313 311 310 310 305 301 299 298 297 296 298 300 303 307 311 315 316 318 320 322 324 326 328 328 329 330 332 333 330 328 327 325 325 325 326 326 326 325 324 323 321 321 321 322 321 322 322
9 5 358 353 349 345 342 338 334 332 332 328 338 349 354 350 346 342 340 340 340 337 333 331 327 317 302 294 290 290 295 300 306 309 302 291 283 281 294 300 304 307 310 305 297 288 283 285 287 290 292 294 298 301 302 305 311 315 320 321 319 317 319 323 327 330 331 329 327 325 323 323 324 325 324 322 320 317 314 312 312 313 315 316 319 320
7 1 354 348 343 340 338 336 336 336 335 333 348 0 0 354 349 347 346 347 346 345 346 346 344 339 332 323 311 301 297 298 302 303 299 293 290 291 298 302 304 306 307 305 299 289 277 276 277 280 281 285 291 296 298 300 304 310 315 314 314 314 315 321 326 330 330 328 326 324 324 323 322 321 320 317 314 311 309 309 309 310 312 314 314 314
2 355 347 342 338 335 335 340 343 343 340 348 1 7 1 355 350 348 347 345 342 341 342 342 339 335 332 332 331 328 318 304 298 300 304 305 306 309 314 311 307 303 302 304 301 297 289 284 278 273 271 272 277 288 295 300 304 306 308 312 318 322 324 327 328 329 328 326 324 323 322 321 319 316 313 310 307 306 307 307 308 309 309 308 307 306
356 349 343 342 341 341 345 351 350 345 341 352 2 4 355 353 351 350 349 343 338 337 339 338 335 332 335 337 337 337 334 325 314 308 312 330 334 334 328 320 311 302 294 292 295 299 303 300 292 280 269 266 273 283 291 297 302 307 310 316 320 321 317 317 320 323 324 323 322 321 321 320 318 314 309 306 304 305 307 307 307 306 305 302 301 301
352 348 347 348 350 352 355 355 349 342 336 350 356 357 351 350 352 353 352 343 338 337 337 339 339 341 344 341 339 337 336 337 340 341 332 339 341 340 333 324 317 310 302 289 280 281 292 296 295 292 288 280 276 279 286 294 300 307 313 318 318 315 306 308 312 317 320 319 319 319 321 320 318 315 312 310 309 308 308 307 306 305 304 305 303 303
356 354 352 352 354 356 357 354 346 339 335 346 351 352 349 349 350 352 352 346 340 336 334 340 346 348 343 338 337 337 338 339 341 343 345 343 340 337 332 327 324 319 311 299 284 271 264 268 275 283 292 293 285 277 275 285 298 307 314 319 319 316 311 311 313 315 316 316 316 316 317 318 318 316 314 314 312 310 306 303 302 302 303 304 304 304
359 357 354 354 355 356 355 349 344 340 341 346 349 349 348 350 351 352 352 349 343 337 336 341 346 346 338 334 335 338 339 338 338 339 341 342 342 340 338 333 329 324 316 307 297 283 267 257 253 254 264 279 284 280 273 283 299 311 316 318 318 318 316 316 316 315 313 311 311 312 315 318 318 316 313 313 311 310 307 305 301 298 298 300 302 305
357 354 353 352 352 351 349 346 344 345 346 346 346 346 348 353 355 355 349 346 342 340 341 344 344 341 335 333 334 338 340 338 336 336 338 339 341 342 342 339 335 329 322 314 306 296 282 266 249 231 214 219 249 278 292 303 312 316 315 316 317 317 316 316 316 315 313 310 308 308 312 314 314 312 310 310 310 311 313 312 309 304 299 299 302 305
354 351 352 351 350 350 348 346 347 348 349 346 344 343 343 350 356 356 348 342 341 341 344 343 339 335 332 333 336 339 342 340 338 337 338 339 340 341 342 341 339 335 329 324 319 313 304 289 261 224 193 192 216 270 301 313 317 317 313 313 315 316 316 316 316 317 316 312 309 307 306 305 303 301 302 305 306 309 311 313 313 311 308 305 305 307
351 350 352 351 351 350 348 347 348 350 349 343 341 341 341 347 351 351 347 344 343 342 341 338 334 331 330 333 338 343 345 343 340 340 340 341 342 342 342 342 342 340 338 338 338 338 335 329 315 268 212 221 267 320 323 321 319 317 315 315 317 318 317 316 316 316 316 314 312 310 306 303 299 298 299 302 304 306 309 312 315 317 317 315 313 311
348 349 353 352 351 349 347 346 348 350 348 342 338 339 343 347 348 348 348 348 346 343 337 334 331 329 331 336 341 345 345 343 341 341 341 342 343 343 343 344 344 345 344 346 347 347 347 345 339 325 298 314 341 355 342 326 320 319 319 321 322 322 319 315 314 314 314 313 312 311 309 308 307 307 308 306 306 308 311 314 317 319 321 320 318 315